Location: McFarlands Corners
(41.4117°N, 81.3382°W)
Time: 14:36:23
(UTC+00:00)

Transit 2A - Pass Details

Date: 24 February 2026
Orbit: 590 x 954 km, 66.7° (Epoch: 7 March)

Event Time Altitude Azimuth Distance (km) Brightness Sun altitude
Rises 01:36:55 0° 328° (NNW) 3,537 10.0 -28.3°
Reaches altitude 10° 01:39:32 10° 328° (NNW) 2,549 9.2 -28.8°
Enters shadow 01:44:54 72° 300° (WNW) 875 6.3 -29.8°
